AAL539 KLAX-KAUS

Flight info

Callsign AAL539
Flight time 2h 12m
Altitude 39000
Route DOTSS2 CNERY BLH SPTFR SSO PEQ Q4 FUSCO DILLO LAIKS4
Aircraft B789/H-SDE1E2E3FGHIJ2J3J4J5M1RWXY/LB1D1

Departure

Time 2026-04-24 21:40
Airport Los Angeles International Airport (KLAX)

Arrival

Time 2026-04-24 23:53
Airport Austin Bergstrom International Airport (KAUS)
Time Latitude Longitude Altitude Speed Heading
2026-04-24 21:07 33.94104 -118.40748 98 ft 0 kts 69°
2026-04-24 21:28 33.94096 -118.40774 98 ft 4 kts 69°
2026-04-24 21:28 33.94087 -118.40800 98 ft 3 kts 70°
2026-04-24 21:29 33.94086 -118.40825 98 ft 4 kts 132°
2026-04-24 21:29 33.94105 -118.40838 98 ft 2 kts 173°
2026-04-24 21:29 33.94084 -118.40835 98 ft 4 kts 173°
2026-04-24 21:29 33.94057 -118.40831 99 ft 4 kts 173°
2026-04-24 21:30 33.94030 -118.40827 101 ft 4 kts 173°
2026-04-24 21:30 33.94005 -118.40823 98 ft 2 kts 173°
2026-04-24 21:30 33.94004 -118.40823 98 ft 0 kts 173°
2026-04-24 21:33 33.93998 -118.40822 98 ft 2 kts 173°
2026-04-24 21:33 33.93966 -118.40818 99 ft 6 kts 174°
2026-04-24 21:34 33.93920 -118.40806 100 ft 8 kts 157°
2026-04-24 21:34 33.93863 -118.40753 101 ft 11 kts 144°
2026-04-24 21:34 33.93812 -118.40690 101 ft 10 kts 107°
2026-04-24 21:34 33.93815 -118.40604 101 ft 13 kts 79°
2026-04-24 21:35 33.93831 -118.40469 100 ft 18 kts 85°
2026-04-24 21:35 33.93846 -118.40317 101 ft 19 kts 83°
2026-04-24 21:35 33.93864 -118.40157 104 ft 20 kts 84°
2026-04-24 21:35 33.93880 -118.39988 102 ft 21 kts 82°
2026-04-24 21:36 33.93899 -118.39809 103 ft 22 kts 83°
2026-04-24 21:36 33.93919 -118.39619 100 ft 23 kts 83°
2026-04-24 21:36 33.93939 -118.39418 103 ft 25 kts 83°
2026-04-24 21:36 33.93960 -118.39206 101 ft 26 kts 83°
2026-04-24 21:37 33.93982 -118.38988 101 ft 26 kts 82°
2026-04-24 21:37 33.94005 -118.38765 100 ft 27 kts 82°
2026-04-24 21:37 33.94029 -118.38538 101 ft 27 kts 83°
2026-04-24 21:37 33.94052 -118.38307 104 ft 28 kts 83°
2026-04-24 21:38 33.94074 -118.38095 99 ft 14 kts 83°
2026-04-24 21:38 33.94076 -118.38052 98 ft 0 kts 92°
2026-04-24 21:38 33.94076 -118.38044 98 ft 2 kts 98°
2026-04-24 21:39 33.94067 -118.38025 99 ft 6 kts 127°
2026-04-24 21:39 33.94031 -118.38003 100 ft 6 kts 167°
2026-04-24 21:39 33.93996 -118.38008 99 ft 3 kts 217°
2026-04-24 21:39 33.93987 -118.38027 102 ft 4 kts 247°
2026-04-24 21:40 33.93962 -118.38235 104 ft 52 kts 263°
2026-04-24 21:40 33.93895 -118.38900 104 ft 110 kts 263°
2026-04-24 21:40 33.93775 -118.40022 138 ft 157 kts 261°
2026-04-24 21:40 33.93630 -118.41338 746 ft 161 kts 259°
2026-04-24 21:41 33.93472 -118.42655 1402 ft 160 kts 258°
2026-04-24 21:41 33.93340 -118.44008 1979 ft 166 kts 262°
2026-04-24 21:41 33.93203 -118.45436 2384 ft 176 kts 258°
2026-04-24 21:41 33.92589 -118.46727 2701 ft 186 kts 224°
2026-04-24 21:42 33.91717 -118.47955 3062 ft 200 kts 232°
2026-04-24 21:42 33.90856 -118.49315 3466 ft 210 kts 231°
2026-04-24 21:42 33.89829 -118.50702 3716 ft 230 kts 230°
2026-04-24 21:42 33.88780 -118.52269 4104 ft 248 kts 232°
2026-04-24 21:43 33.87677 -118.53944 4609 ft 261 kts 232°
2026-04-24 21:43 33.86377 -118.55442 5313 ft 263 kts 209°
2026-04-24 21:43 33.84610 -118.56018 6033 ft 270 kts 184°
2026-04-24 21:43 33.82744 -118.55716 6724 ft 274 kts 169°
2026-04-24 21:44 33.80868 -118.55120 7329 ft 280 kts 167°
2026-04-24 21:44 33.78971 -118.54531 8008 ft 282 kts 170°
2026-04-24 21:44 33.77042 -118.54043 8737 ft 284 kts 171°
2026-04-24 21:44 33.75095 -118.53549 9454 ft 287 kts 171°
2026-04-24 21:45 33.73137 -118.53024 10111 ft 290 kts 171°
2026-04-24 21:45 33.71156 -118.52323 10354 ft 311 kts 158°
2026-04-24 21:45 33.69444 -118.50567 10542 ft 339 kts 130°
2026-04-24 21:45 33.68343 -118.47976 10830 ft 359 kts 114°
2026-04-24 21:46 33.67526 -118.45086 11233 ft 371 kts 109°
2026-04-24 21:46 33.66781 -118.42091 11793 ft 377 kts 109°
2026-04-24 21:46 33.65930 -118.39089 12366 ft 382 kts 113°
2026-04-24 21:46 33.64979 -118.36086 12921 ft 388 kts 114°
2026-04-24 21:47 33.64382 -118.32894 13347 ft 399 kts 96°
2026-04-24 21:47 33.64350 -118.30682 13772 ft 401 kts 91°
2026-04-24 21:47 33.64470 -118.26176 14481 ft 407 kts 89°
2026-04-24 21:47 33.64506 -118.22760 14973 ft 411 kts 92°
2026-04-24 21:48 33.64462 -118.19307 15451 ft 416 kts 92°
2026-04-24 21:48 33.64434 -118.15818 15914 ft 421 kts 91°
2026-04-24 21:48 33.64451 -118.12336 16399 ft 425 kts 91°
2026-04-24 21:48 33.64468 -118.08765 16873 ft 430 kts 91°
2026-04-24 21:49 33.64460 -118.05167 17334 ft 434 kts 92°
2026-04-24 21:49 33.64444 -118.01529 17801 ft 438 kts 92°
2026-04-24 21:49 33.64440 -117.97852 18247 ft 443 kts 91°
2026-04-24 21:49 33.64440 -117.94146 18631 ft 447 kts 91°
2026-04-24 21:50 33.64434 -117.90396 19024 ft 450 kts 91°
2026-04-24 21:50 33.64422 -117.86624 19409 ft 454 kts 91°
2026-04-24 21:50 33.64410 -117.82825 19790 ft 458 kts 91°
2026-04-24 21:50 33.64202 -117.79009 20102 ft 460 kts 103°
2026-04-24 21:51 33.63389 -117.75305 20473 ft 460 kts 109°
2026-04-24 21:51 33.62472 -117.71615 20836 ft 463 kts 110°
2026-04-24 21:51 33.61534 -117.67909 21192 ft 466 kts 110°
2026-04-24 21:51 33.60612 -117.64164 21551 ft 470 kts 110°
2026-04-24 21:52 33.59694 -117.60383 21909 ft 474 kts 110°
2026-04-24 21:52 33.58758 -117.56583 22253 ft 477 kts 110°
2026-04-24 21:52 33.57803 -117.52760 22609 ft 480 kts 110°
2026-04-24 21:52 33.56845 -117.48909 22952 ft 483 kts 110°
2026-04-24 21:53 33.55886 -117.45030 23292 ft 487 kts 110°
2026-04-24 21:53 33.54919 -117.41126 23546 ft 491 kts 110°
2026-04-24 21:53 33.53938 -117.37197 23822 ft 492 kts 110°
2026-04-24 21:53 33.52969 -117.33316 24139 ft 493 kts 110°
2026-04-24 21:54 33.51987 -117.29382 24451 ft 494 kts 110°
2026-04-24 21:54 33.51009 -117.25433 24738 ft 496 kts 109°
2026-04-24 21:54 33.50413 -117.21329 24904 ft 504 kts 96°
2026-04-24 21:54 33.50324 -117.17130 25222 ft 505 kts 92°
2026-04-24 21:55 33.50351 -117.12909 25517 ft 507 kts 91°
2026-04-24 21:55 33.50332 -117.08677 25786 ft 509 kts 93°
2026-04-24 21:55 33.50230 -117.04435 26053 ft 510 kts 94°
2026-04-24 21:55 33.50136 -117.00181 26317 ft 512 kts 93°
2026-04-24 21:56 33.50094 -116.95903 26585 ft 514 kts 92°
2026-04-24 21:56 33.50057 -116.91610 26861 ft 516 kts 93°
2026-04-24 21:56 33.49985 -116.87300 27130 ft 518 kts 94°
2026-04-24 21:56 33.49900 -116.82977 27396 ft 520 kts 94°
2026-04-24 21:57 33.49831 -116.78642 27682 ft 522 kts 93°
2026-04-24 21:57 33.49772 -116.74285 27951 ft 524 kts 93°
2026-04-24 21:57 33.49703 -116.69913 28223 ft 525 kts 94°
2026-04-24 21:57 33.49622 -116.65530 28502 ft 527 kts 94°
2026-04-24 21:58 33.49543 -116.61125 28734 ft 530 kts 94°
2026-04-24 21:58 33.49469 -116.56703 29004 ft 531 kts 94°
2026-04-24 21:58 33.49394 -116.52330 29237 ft 534 kts 94°
2026-04-24 21:58 33.49309 -116.47843 29541 ft 536 kts 94°
2026-04-24 21:59 33.49224 -116.43379 29845 ft 537 kts 94°
2026-04-24 21:59 33.49144 -116.38955 30112 ft 539 kts 94°
2026-04-24 21:59 33.49087 -116.34452 30331 ft 542 kts 93°
2026-04-24 21:59 33.49033 -116.29926 30517 ft 545 kts 93°
2026-04-24 22:00 33.48962 -116.25385 30644 ft 547 kts 94°
2026-04-24 22:00 33.48881 -116.20827 30914 ft 546 kts 94°
2026-04-24 22:00 33.48807 -116.16272 31166 ft 548 kts 93°
2026-04-24 22:00 33.48738 -116.11700 31398 ft 550 kts 93°
2026-04-24 22:01 33.48676 -116.07106 31612 ft 553 kts 92°
2026-04-24 22:01 33.49025 -116.02497 31750 ft 559 kts 81°
2026-04-24 22:01 33.49881 -115.97956 32014 ft 559 kts 79°
2026-04-24 22:01 33.50280 -115.93328 32262 ft 560 kts 91°
2026-04-24 22:02 33.50081 -115.88665 32430 ft 561 kts 99°
2026-04-24 22:02 33.49558 -115.84045 32645 ft 562 kts 102°
2026-04-24 22:02 33.48948 -115.79408 32878 ft 565 kts 102°
2026-04-24 22:02 33.48513 -115.74847 33117 ft 568 kts 97°
2026-04-24 22:03 33.48362 -115.69981 33454 ft 570 kts 93°
2026-04-24 22:03 33.48370 -115.65232 33816 ft 571 kts 91°
2026-04-24 22:03 33.48359 -115.60622 34105 ft 570 kts 94°
2026-04-24 22:03 33.48129 -115.55900 34411 ft 568 kts 97°
2026-04-24 22:04 33.47816 -115.51176 34648 ft 569 kts 96°
2026-04-24 22:04 33.47633 -115.46429 34895 ft 571 kts 94°
2026-04-24 22:04 33.47540 -115.41716 35174 ft 571 kts 94°
2026-04-24 22:04 33.47379 -115.37070 35441 ft 571 kts 95°
2026-04-24 22:05 33.47132 -115.32328 35705 ft 571 kts 96°
2026-04-24 22:05 33.46909 -115.27575 35962 ft 572 kts 95°
2026-04-24 22:05 33.46747 -115.22811 36221 ft 572 kts 94°
2026-04-24 22:05 33.46581 -115.18052 36479 ft 573 kts 95°
2026-04-24 22:06 33.46369 -115.13286 36786 ft 572 kts 95°
2026-04-24 22:06 33.46145 -115.08529 37046 ft 573 kts 95°
2026-04-24 22:06 33.45958 -115.04040 37278 ft 574 kts 95°
2026-04-24 22:06 33.45770 -114.99170 37530 ft 574 kts 95°
2026-04-24 22:07 33.45567 -114.94400 37808 ft 574 kts 95°
2026-04-24 22:07 33.45348 -114.89628 38054 ft 574 kts 95°
2026-04-24 22:07 33.45137 -114.84921 38295 ft 574 kts 95°
2026-04-24 22:07 33.44933 -114.80146 38534 ft 574 kts 95°
2026-04-24 22:08 33.44726 -114.75373 38713 ft 574 kts 95°
2026-04-24 22:08 33.44285 -114.65809 38789 ft 575 kts 95°
2026-04-24 22:09 33.43855 -114.56306 38782 ft 570 kts 95°
2026-04-24 22:09 33.43409 -114.46832 38777 ft 569 kts 95°
2026-04-24 22:10 33.42962 -114.37371 38793 ft 570 kts 95°
2026-04-24 22:10 33.42582 -114.29479 38792 ft 572 kts 95°
2026-04-24 22:11 33.42118 -114.19987 38792 ft 570 kts 95°
2026-04-24 22:11 33.41649 -114.10525 38789 ft 569 kts 95°
2026-04-24 22:12 33.41174 -114.01096 38791 ft 566 kts 95°
2026-04-24 22:12 33.40692 -113.91666 37808 ft 569 kts 95°
2026-04-24 22:12 33.40448 -113.86945 37179 ft 570 kts 95°
2026-04-24 22:13 33.40200 -113.82203 37337 ft 571 kts 96°
2026-04-24 22:13 33.39952 -113.77468 37541 ft 571 kts 96°
2026-04-24 22:13 33.39646 -113.72962 37730 ft 569 kts 101°
2026-04-24 22:13 33.38790 -113.68369 37955 ft 564 kts 109°
2026-04-24 22:14 33.37712 -113.63866 38165 ft 563 kts 111°
2026-04-24 22:14 33.36610 -113.59371 38382 ft 563 kts 110°
2026-04-24 22:14 33.35565 -113.54858 38598 ft 563 kts 109°
2026-04-24 22:14 33.34551 -113.50350 38837 ft 562 kts 109°
2026-04-24 22:15 33.33501 -113.45846 39058 ft 561 kts 110°
2026-04-24 22:15 33.32421 -113.41358 40806 ft 563 kts 110°
2026-04-24 22:15 33.31349 -113.36842 40781 ft 564 kts 110°
2026-04-24 22:16 33.29277 -113.27916 40778 ft 558 kts 110°
2026-04-24 22:16 33.27151 -113.19017 40784 ft 557 kts 110°
2026-04-24 22:17 33.25052 -113.10114 40798 ft 556 kts 110°
2026-04-24 22:17 33.22922 -113.01201 40802 ft 558 kts 110°
2026-04-24 22:18 33.20794 -112.92280 40809 ft 559 kts 110°
2026-04-24 22:18 33.18654 -112.83358 40813 ft 558 kts 110°
2026-04-24 22:19 33.16511 -112.74452 40810 ft 558 kts 110°
2026-04-24 22:19 33.14365 -112.65558 40805 ft 558 kts 110°
2026-04-24 22:20 33.12211 -112.56673 40772 ft 557 kts 110°
2026-04-24 22:20 33.10068 -112.47853 40794 ft 558 kts 110°
2026-04-24 22:21 33.07884 -112.38902 40796 ft 558 kts 110°
2026-04-24 22:21 33.05710 -112.30016 40796 ft 558 kts 111°
2026-04-24 22:22 33.03541 -112.21184 40795 ft 558 kts 111°
2026-04-24 22:22 33.01370 -112.12369 40816 ft 558 kts 111°
2026-04-24 22:23 32.99177 -112.03501 40831 ft 559 kts 111°
2026-04-24 22:23 32.96975 -111.94624 40846 ft 559 kts 111°
2026-04-24 22:24 32.94760 -111.85726 40861 ft 561 kts 111°
2026-04-24 22:24 32.92539 -111.76828 40852 ft 560 kts 111°
2026-04-24 22:25 32.90328 -111.68004 40842 ft 559 kts 111°
2026-04-24 22:25 32.88102 -111.59149 40826 ft 557 kts 111°
2026-04-24 22:26 32.85875 -111.50321 40791 ft 558 kts 111°
2026-04-24 22:26 32.83637 -111.41476 40769 ft 559 kts 111°
2026-04-24 22:27 32.81403 -111.32677 40802 ft 561 kts 111°
2026-04-24 22:27 32.79144 -111.23806 40807 ft 561 kts 111°
2026-04-24 22:28 32.76875 -111.14926 40810 ft 561 kts 111°
2026-04-24 22:28 32.74601 -111.06057 40812 ft 561 kts 111°
2026-04-24 22:29 32.71176 -110.92748 40803 ft 561 kts 111°
2026-04-24 22:29 32.68889 -110.83900 40765 ft 561 kts 111°
2026-04-24 22:30 32.66593 -110.75046 40805 ft 562 kts 111°
2026-04-24 22:30 32.64285 -110.66173 40803 ft 562 kts 111°
2026-04-24 22:31 32.61973 -110.57312 40802 ft 562 kts 112°
2026-04-24 22:31 32.59653 -110.48454 40808 ft 562 kts 111°
2026-04-24 22:32 32.57342 -110.39653 40803 ft 562 kts 111°
2026-04-24 22:32 32.55013 -110.30814 40808 ft 562 kts 111°
2026-04-24 22:33 32.52682 -110.21991 40800 ft 559 kts 112°
2026-04-24 22:33 32.50353 -110.13170 40805 ft 562 kts 111°
2026-04-24 22:34 32.47999 -110.04344 40799 ft 562 kts 111°
2026-04-24 22:34 32.45651 -109.95530 40801 ft 563 kts 111°
2026-04-24 22:35 32.43280 -109.86676 40794 ft 563 kts 111°
2026-04-24 22:35 32.40910 -109.77848 40788 ft 563 kts 111°
2026-04-24 22:36 32.38539 -109.69044 40785 ft 561 kts 111°
2026-04-24 22:36 32.36165 -109.60260 40768 ft 561 kts 112°
2026-04-24 22:37 32.33780 -109.51461 40766 ft 563 kts 112°
2026-04-24 22:37 32.31383 -109.42639 40775 ft 563 kts 111°
2026-04-24 22:38 32.28984 -109.33841 40766 ft 562 kts 112°
2026-04-24 22:38 32.26768 -109.25075 40745 ft 565 kts 103°
2026-04-24 22:39 32.25700 -109.15867 40775 ft 567 kts 99°
2026-04-24 22:39 32.24609 -109.06629 40765 ft 568 kts 101°
2026-04-24 22:40 32.23492 -108.97399 40764 ft 568 kts 99°
2026-04-24 22:40 32.22407 -108.88183 40756 ft 566 kts 100°
2026-04-24 22:41 32.21275 -108.78970 40770 ft 568 kts 100°
2026-04-24 22:41 32.20727 -108.74351 40907 ft 569 kts 100°
2026-04-24 22:41 32.20169 -108.69729 40907 ft 569 kts 100°
2026-04-24 22:42 32.19034 -108.60536 40896 ft 569 kts 100°
2026-04-24 22:42 32.17907 -108.51308 40861 ft 567 kts 100°
2026-04-24 22:43 32.16763 -108.42102 40833 ft 567 kts 100°
2026-04-24 22:43 32.15618 -108.32883 40777 ft 569 kts 100°
2026-04-24 22:44 32.14458 -108.23628 40779 ft 571 kts 100°
2026-04-24 22:44 32.13290 -108.14356 40777 ft 570 kts 100°
2026-04-24 22:45 32.12118 -108.05117 40775 ft 570 kts 101°
2026-04-24 22:45 32.10941 -107.95885 40770 ft 569 kts 101°
2026-04-24 22:46 32.09758 -107.86663 40767 ft 568 kts 101°
2026-04-24 22:46 32.08569 -107.77452 40872 ft 567 kts 101°
2026-04-24 22:47 32.07376 -107.68254 40870 ft 568 kts 101°
2026-04-24 22:47 32.06173 -107.59038 40852 ft 571 kts 101°
2026-04-24 22:48 32.04967 -107.49859 40809 ft 569 kts 101°
2026-04-24 22:48 32.03751 -107.40643 40750 ft 568 kts 101°
2026-04-24 22:49 32.02529 -107.31456 40737 ft 567 kts 101°
2026-04-24 22:49 32.01308 -107.22303 40736 ft 565 kts 101°
2026-04-24 22:50 32.00076 -107.13144 40750 ft 566 kts 101°
2026-04-24 22:50 31.98840 -107.03984 40735 ft 566 kts 101°
2026-04-24 22:51 31.97593 -106.94810 40773 ft 569 kts 101°
2026-04-24 22:51 31.96336 -106.85604 40885 ft 570 kts 101°
2026-04-24 22:52 31.95071 -106.76396 40926 ft 569 kts 101°
2026-04-24 22:52 31.93801 -106.67198 40916 ft 570 kts 101°
2026-04-24 22:53 31.92521 -106.57989 40902 ft 570 kts 101°
2026-04-24 22:53 31.91234 -106.48772 40907 ft 571 kts 101°
2026-04-24 22:54 31.89944 -106.39576 40920 ft 569 kts 101°
2026-04-24 22:54 31.88647 -106.30393 40929 ft 569 kts 101°
2026-04-24 22:55 31.87345 -106.21219 40892 ft 567 kts 101°
2026-04-24 22:55 31.86039 -106.12062 40832 ft 566 kts 101°
2026-04-24 22:56 31.84731 -106.02943 40790 ft 567 kts 101°
2026-04-24 22:56 31.83414 -105.93814 40754 ft 571 kts 101°
2026-04-24 22:57 31.82084 -105.84630 40747 ft 569 kts 101°
2026-04-24 22:57 31.80746 -105.75453 40746 ft 569 kts 101°
2026-04-24 22:58 31.79404 -105.66284 40744 ft 569 kts 101°
2026-04-24 22:58 31.78055 -105.57129 40736 ft 567 kts 101°
2026-04-24 22:59 31.76934 -105.49546 40735 ft 566 kts 101°
2026-04-24 23:00 31.74898 -105.35862 40735 ft 567 kts 101°
2026-04-24 23:00 31.73530 -105.26726 40730 ft 568 kts 101°
2026-04-24 23:01 31.72159 -105.17618 40734 ft 565 kts 102°
2026-04-24 23:01 31.70786 -105.08539 40725 ft 564 kts 102°
2026-04-24 23:02 31.69403 -104.99447 40743 ft 567 kts 102°
2026-04-24 23:02 31.68009 -104.90317 40744 ft 568 kts 102°
2026-04-24 23:03 31.66608 -104.81193 40746 ft 567 kts 102°
2026-04-24 23:03 31.65205 -104.72093 40742 ft 566 kts 102°
2026-04-24 23:04 31.63797 -104.63013 40743 ft 566 kts 102°
2026-04-24 23:04 31.62382 -104.53930 40741 ft 566 kts 102°
2026-04-24 23:05 31.60959 -104.44845 40741 ft 567 kts 102°
2026-04-24 23:05 31.59528 -104.35742 40742 ft 568 kts 102°
2026-04-24 23:06 31.58088 -104.26635 40752 ft 568 kts 102°
2026-04-24 23:06 31.56643 -104.17532 40745 ft 568 kts 102°
2026-04-24 23:07 31.55199 -104.08486 40744 ft 568 kts 102°
2026-04-24 23:07 31.53740 -103.99384 40732 ft 570 kts 102°
2026-04-24 23:08 31.52268 -103.90247 40721 ft 570 kts 102°
2026-04-24 23:08 31.50792 -103.81130 40743 ft 569 kts 102°
2026-04-24 23:09 31.49303 -103.71971 40763 ft 569 kts 102°
2026-04-24 23:09 31.47814 -103.62860 40791 ft 569 kts 103°
2026-04-24 23:10 31.46480 -103.53786 40819 ft 569 kts 99°
2026-04-24 23:10 31.45370 -103.44596 40819 ft 570 kts 99°
2026-04-24 23:11 31.44235 -103.35403 40793 ft 570 kts 99°
2026-04-24 23:11 31.43110 -103.26217 40758 ft 570 kts 99°
2026-04-24 23:12 31.41965 -103.17033 40723 ft 570 kts 99°
2026-04-24 23:12 31.40825 -103.07861 40690 ft 568 kts 99°
2026-04-24 23:13 31.39678 -102.98736 40687 ft 567 kts 99°
2026-04-24 23:13 31.38522 -102.89576 40695 ft 570 kts 99°
2026-04-24 23:14 31.37356 -102.80396 40699 ft 570 kts 99°
2026-04-24 23:14 31.36184 -102.71215 40702 ft 571 kts 99°
2026-04-24 23:15 31.35004 -102.62027 40709 ft 572 kts 99°
2026-04-24 23:15 31.33814 -102.52823 40708 ft 571 kts 99°
2026-04-24 23:16 31.32621 -102.43638 40710 ft 570 kts 99°
2026-04-24 23:16 31.31430 -102.34529 40707 ft 570 kts 100°
2026-04-24 23:17 31.30226 -102.25369 40713 ft 570 kts 100°
2026-04-24 23:17 31.29015 -102.16209 40712 ft 570 kts 100°
2026-04-24 23:18 31.27799 -102.07055 40713 ft 570 kts 100°
2026-04-24 23:18 31.26575 -101.97902 40714 ft 569 kts 100°
2026-04-24 23:19 31.25348 -101.88773 40714 ft 567 kts 100°
2026-04-24 23:19 31.24118 -101.79672 40717 ft 568 kts 100°
2026-04-24 23:20 31.22874 -101.70523 40731 ft 571 kts 100°
2026-04-24 23:20 31.21623 -101.61363 40731 ft 570 kts 100°
2026-04-24 23:21 31.20371 -101.52244 40725 ft 567 kts 100°
2026-04-24 23:21 31.19116 -101.43164 40725 ft 567 kts 100°
2026-04-24 23:22 31.17853 -101.34067 40726 ft 568 kts 100°
2026-04-24 23:22 31.16580 -101.24950 40735 ft 569 kts 100°
2026-04-24 23:23 31.15388 -101.16459 40736 ft 570 kts 100°
2026-04-24 23:23 31.14099 -101.07318 40738 ft 570 kts 100°
2026-04-24 23:24 31.12806 -100.98198 40735 ft 569 kts 100°
2026-04-24 23:24 31.11509 -100.89103 40731 ft 568 kts 100°
2026-04-24 23:25 31.10208 -100.80023 40723 ft 567 kts 100°
2026-04-24 23:25 31.08903 -100.70960 40732 ft 566 kts 101°
2026-04-24 23:26 31.07600 -100.61961 40751 ft 566 kts 101°
2026-04-24 23:26 31.06273 -100.52846 40751 ft 572 kts 100°
2026-04-24 23:27 31.04935 -100.43692 40748 ft 572 kts 100°
2026-04-24 23:27 31.03589 -100.34541 40734 ft 571 kts 100°
2026-04-24 23:28 31.02241 -100.25416 40722 ft 571 kts 101°
2026-04-24 23:28 31.00887 -100.16298 40723 ft 570 kts 100°
2026-04-24 23:29 30.99528 -100.07189 40717 ft 570 kts 101°
2026-04-24 23:29 30.98164 -99.98091 40709 ft 570 kts 101°
2026-04-24 23:30 30.96802 -99.89055 40707 ft 569 kts 101°
2026-04-24 23:30 30.95425 -99.79970 40701 ft 570 kts 101°
2026-04-24 23:30 30.94739 -99.75450 40256 ft 566 kts 101°
2026-04-24 23:31 30.94050 -99.70930 39504 ft 568 kts 101°
2026-04-24 23:31 30.93357 -99.66400 38783 ft 569 kts 101°
2026-04-24 23:31 30.92663 -99.61863 37980 ft 570 kts 101°
2026-04-24 23:31 30.91968 -99.57335 37136 ft 566 kts 101°
2026-04-24 23:32 30.91279 -99.52860 36323 ft 551 kts 101°
2026-04-24 23:32 30.90602 -99.48470 35550 ft 558 kts 101°
2026-04-24 23:32 30.89911 -99.44009 34717 ft 554 kts 101°
2026-04-24 23:32 30.89242 -99.39683 33853 ft 533 kts 101°
2026-04-24 23:33 30.88591 -99.35481 32916 ft 524 kts 101°
2026-04-24 23:33 30.88162 -99.32726 32562 ft 519 kts 101°
2026-04-24 23:33 30.87300 -99.27211 31833 ft 516 kts 101°
2026-04-24 23:33 30.86671 -99.23179 30855 ft 498 kts 101°
2026-04-24 23:34 30.86055 -99.19244 29935 ft 498 kts 101°
2026-04-24 23:34 30.85422 -99.15227 28929 ft 508 kts 101°
2026-04-24 23:34 30.84784 -99.11172 27935 ft 511 kts 101°
2026-04-24 23:34 30.84154 -99.07166 26962 ft 493 kts 101°
2026-04-24 23:35 30.83551 -99.03340 26016 ft 469 kts 100°
2026-04-24 23:35 30.82972 -98.99693 24988 ft 450 kts 100°
2026-04-24 23:35 30.82412 -98.96166 23948 ft 436 kts 100°
2026-04-24 23:35 30.81869 -98.92748 22859 ft 424 kts 100°
2026-04-24 23:36 30.81342 -98.89425 21720 ft 411 kts 100°
2026-04-24 23:36 30.80823 -98.86163 20129 ft 421 kts 101°
2026-04-24 23:36 30.80276 -98.82744 19270 ft 431 kts 101°
2026-04-24 23:36 30.79748 -98.79438 19278 ft 415 kts 101°
2026-04-24 23:37 30.79379 -98.76137 19183 ft 412 kts 96°
2026-04-24 23:37 30.79042 -98.72815 18888 ft 413 kts 97°
2026-04-24 23:37 30.78334 -98.66301 18029 ft 402 kts 97°
2026-04-24 23:38 30.78007 -98.63077 17484 ft 401 kts 97°
2026-04-24 23:38 30.77677 -98.59866 17037 ft 397 kts 97°
2026-04-24 23:38 30.77340 -98.56681 16579 ft 395 kts 98°
2026-04-24 23:38 30.77006 -98.53531 16088 ft 389 kts 98°
2026-04-24 23:39 30.76680 -98.50433 15591 ft 384 kts 97°
2026-04-24 23:39 30.76358 -98.47359 15101 ft 382 kts 97°
2026-04-24 23:39 30.76025 -98.44307 14605 ft 379 kts 99°
2026-04-24 23:39 30.75259 -98.41401 14088 ft 374 kts 116°
2026-04-24 23:40 30.74177 -98.38691 13628 ft 367 kts 118°
2026-04-24 23:40 30.73076 -98.36028 13126 ft 365 kts 117°
2026-04-24 23:40 30.72015 -98.33353 12632 ft 364 kts 116°
2026-04-24 23:40 30.70982 -98.30677 12143 ft 361 kts 116°
2026-04-24 23:41 30.69952 -98.28047 11661 ft 355 kts 116°
2026-04-24 23:41 30.68919 -98.25456 11184 ft 352 kts 116°
2026-04-24 23:41 30.67904 -98.22902 10779 ft 344 kts 116°
2026-04-24 23:41 30.66937 -98.20448 10599 ft 323 kts 116°
2026-04-24 23:42 30.66028 -98.18144 10451 ft 306 kts 116°
2026-04-24 23:42 30.65162 -98.15961 10206 ft 296 kts 116°
2026-04-24 23:42 30.64293 -98.13776 9905 ft 296 kts 116°
2026-04-24 23:42 30.63430 -98.11603 9621 ft 294 kts 116°
2026-04-24 23:43 30.62601 -98.09507 9352 ft 279 kts 116°
2026-04-24 23:43 30.62064 -98.08156 9186 ft 279 kts 116°
2026-04-24 23:43 30.61250 -98.06112 8907 ft 277 kts 116°
2026-04-24 23:43 30.60450 -98.04100 8631 ft 276 kts 116°
2026-04-24 23:44 30.59401 -98.01458 8244 ft 264 kts 116°
2026-04-24 23:44 30.58888 -98.00169 8059 ft 257 kts 116°
2026-04-24 23:44 30.58135 -97.98280 7780 ft 259 kts 116°
2026-04-24 23:44 30.57373 -97.96370 7516 ft 262 kts 115°
2026-04-24 23:45 30.56605 -97.94443 7252 ft 263 kts 115°
2026-04-24 23:45 30.55704 -97.92652 6911 ft 257 kts 129°
2026-04-24 23:45 30.54532 -97.91089 6629 ft 258 kts 132°
2026-04-24 23:45 30.53346 -97.89496 6326 ft 260 kts 131°
2026-04-24 23:46 30.52179 -97.87898 6005 ft 260 kts 130°
2026-04-24 23:46 30.51016 -97.86302 5673 ft 259 kts 131°
2026-04-24 23:46 30.49866 -97.84733 5342 ft 260 kts 131°
2026-04-24 23:46 30.48680 -97.83116 5112 ft 258 kts 132°
2026-04-24 23:47 30.47549 -97.81578 5032 ft 241 kts 132°
2026-04-24 23:47 30.46474 -97.80114 5044 ft 238 kts 132°
2026-04-24 23:47 30.45398 -97.78651 5029 ft 238 kts 132°
2026-04-24 23:47 30.44328 -97.77195 5039 ft 237 kts 132°
2026-04-24 23:48 30.43270 -97.75758 4994 ft 237 kts 133°
2026-04-24 23:48 30.41989 -97.74542 4777 ft 240 kts 150°
2026-04-24 23:48 30.40570 -97.73587 4468 ft 231 kts 153°
2026-04-24 23:48 30.39210 -97.72671 4167 ft 222 kts 152°
2026-04-24 23:49 30.37914 -97.71763 3878 ft 214 kts 151°
2026-04-24 23:49 30.36669 -97.70883 3596 ft 206 kts 152°
2026-04-24 23:49 30.35459 -97.70036 3317 ft 200 kts 152°
2026-04-24 23:49 30.34281 -97.69210 3053 ft 195 kts 152°
2026-04-24 23:50 30.33113 -97.68425 2800 ft 193 kts 155°
2026-04-24 23:50 30.31810 -97.68205 2491 ft 183 kts 182°
2026-04-24 23:50 30.30578 -97.68184 2284 ft 172 kts 180°
2026-04-24 23:50 30.29421 -97.68153 2065 ft 160 kts 180°
2026-04-24 23:51 30.28347 -97.68124 1866 ft 150 kts 180°
2026-04-24 23:51 30.27336 -97.68095 1673 ft 142 kts 181°
2026-04-24 23:51 30.26340 -97.68071 1519 ft 146 kts 180°
2026-04-24 23:51 30.25328 -97.68047 1352 ft 143 kts 180°
2026-04-24 23:52 30.24336 -97.68023 1147 ft 140 kts 180°
2026-04-24 23:52 30.23343 -97.67997 967 ft 148 kts 178°
2026-04-24 23:52 30.22334 -97.67971 761 ft 141 kts 177°
2026-04-24 23:52 30.21341 -97.67938 588 ft 144 kts 177°
2026-04-24 23:53 30.20371 -97.67912 534 ft 127 kts 178°
2026-04-24 23:53 30.19692 -97.67894 532 ft 70 kts 178°
2026-04-24 23:53 30.19396 -97.67783 533 ft 18 kts 115°
2026-04-24 23:53 30.19395 -97.67644 533 ft 18 kts 88°
2026-04-24 23:54 30.19397 -97.67497 533 ft 19 kts 89°
2026-04-24 23:54 30.19407 -97.67350 533 ft 16 kts 63°
2026-04-24 23:54 30.19473 -97.67326 533 ft 9 kts 359°
2026-04-24 23:54 30.19569 -97.67326 533 ft 18 kts 360°
2026-04-24 23:55 30.19697 -97.67326 533 ft 20 kts 360°
2026-04-24 23:55 30.19839 -97.67330 533 ft 21 kts 358°
2026-04-24 23:55 30.19983 -97.67335 533 ft 12 kts 359°
2026-04-24 23:55 30.20026 -97.67284 533 ft 9 kts 82°
2026-04-24 23:56 30.20029 -97.67203 533 ft 13 kts 89°
2026-04-24 23:56 30.20032 -97.67071 533 ft 18 kts 89°
2026-04-24 23:56 30.20032 -97.66925 533 ft 19 kts 96°
2026-04-24 23:56 30.20004 -97.66776 533 ft 19 kts 97°
2026-04-24 23:57 30.20006 -97.66616 533 ft 20 kts 82°
2026-04-24 23:57 30.20028 -97.66463 533 ft 15 kts 86°
2026-04-24 23:57 30.20064 -97.66390 535 ft 11 kts 39°
2026-04-24 23:57 30.20093 -97.66310 533 ft 13 kts 84°
2026-04-24 23:58 30.20096 -97.66199 533 ft 14 kts 89°
2026-04-24 23:58 30.20124 -97.66142 533 ft 7 kts 21°
2026-04-24 23:58 30.20181 -97.66141 533 ft 10 kts 347°
2026-04-24 23:58 30.20217 -97.66190 533 ft 7 kts 294°
2026-04-24 23:59 30.20222 -97.66204 533 ft 1 kts 293°
2026-04-24 23:59 30.20226 -97.66214 533 ft 0 kts 293°
2026-04-25 00:01 30.20213 -97.66202 533 ft 0 kts 288°